Weather History for Andover, NJ

Change the Weather History Date:

Saturday, October 5, 2013

  Actual Average (KFWN) Record (KFWN)
Temperature  
Mean Temperature 71 °F -  
Max Temperature 81 °F 67 °F 86 °F (2007)
Min Temperature 61 °F 42 °F 28 °F (1965)
Cooling Degree Days 6    
Growing Degree Days 21 (Base 50)    
Moisture  
Dew Point 63 °F    
Average Humidity 83    
Maximum Humidity 97    
Minimum Humidity 52    
Precipitation  
Precipitation 0.00 in - - ()
Sea Level Pressure  
Sea Level Pressure 30.06 in    
Wind  
Wind Speed 1 mph (SW)    
Max Wind Speed 5 mph    
Max Gust Speed -    
Averages and records for this station are not official NWS values.
T = Trace of Precipitation, MM = Missing Value Source: NWS Daily Summary

Daily Weather History Graph

Daily Weather History Graph

Search for Another Location

Airport:

Trip Planner

Search our weather history database for the weather conditions in past years. The results will help you decide how hot, cold, wet, or windy it might be!

Date:

Astronomy

Oct. 05, 2013 Rise Set
Actual Time 6:59 AM EDT 6:33 PM EDT
Civil Twilight 6:32 AM EDT 7:01 PM EDT
Nautical Twilight 6:00 AM EDT 7:33 PM EDT
Astronomical Twilight 5:28 AM EDT 8:05 PM EDT
Moon 7:37 AM EDT (10/5) 6:50 PM EDT (10/5)
Length of Visible Light 12h 28m
Length of Day
11h 33m
New Moon, 0% of the Moon is Illuminated
Oct 5
New Moon
Oct 11
First Quarter
Oct 18
Full
Oct 26
Last Quarter
Nov 3
New

Hourly Weather History & Observations

Time (EDT) Temp. Heat Index Dew Point Humidity Pressure Visibility Wind Dir Wind Speed Gust Speed Precip Events Conditions
12:54 AM 64.0 °F - 63.0 °F 96% 30.04 in - Calm Calm - N/A   Unknown
1:54 AM 64.0 °F - 63.0 °F 96% 30.04 in - Calm Calm - N/A   Unknown
2:54 AM 64.0 °F - 63.0 °F 96% 30.04 in - Calm Calm - N/A   Unknown
3:54 AM 64.0 °F - 62.1 °F 93% 30.04 in - Variable 3.5 mph - N/A   Unknown
4:54 AM 63.0 °F - 61.0 °F 93% 30.04 in - Calm Calm - N/A   Unknown
5:54 AM 62.1 °F - 61.0 °F 96% 30.06 in - Calm Calm - N/A   Unknown
6:54 AM 62.1 °F - 61.0 °F 96% 30.06 in - Calm Calm - N/A   Unknown
7:54 AM 61.0 °F - 60.1 °F 97% 30.09 in - Calm Calm - N/A   Unknown
8:54 AM 62.1 °F - 61.0 °F 96% 30.10 in - Variable 3.5 mph - N/A   Unknown
9:54 AM 63.0 °F - 62.1 °F 97% 30.11 in - Calm Calm - N/A   Unknown
10:54 AM 66.0 °F - 63.0 °F 90% 30.10 in - Calm Calm - N/A   Unknown
11:54 AM 70.0 °F - 63.0 °F 78% 30.10 in - Calm Calm - N/A   Unknown
12:54 PM 73.9 °F - 64.0 °F 71% 30.06 in - North 3.5 mph - N/A   Unknown
1:54 PM 77.0 °F - 62.1 °F 60% 30.04 in - Calm Calm - N/A   Unknown
2:54 PM 80.1 °F 81.2 °F 62.1 °F 54% 30.03 in - SSW 3.5 mph - N/A   Unknown
3:54 PM 81.0 °F 81.9 °F 62.1 °F 52% 30.01 in - Calm Calm - N/A   Unknown
4:54 PM 79.0 °F - 63.0 °F 58% 30.02 in - Calm Calm - N/A   Unknown
5:54 PM 77.0 °F - 66.0 °F 69% 30.02 in - Calm Calm - N/A   Unknown
6:54 PM 73.9 °F - 66.0 °F 76% 30.02 in - Variable 3.5 mph - N/A   Unknown
7:54 PM 72.0 °F - 64.0 °F 76% 30.04 in - SSW 4.6 mph - N/A   Unknown
8:54 PM 69.1 °F - 64.0 °F 84% 30.06 in - Calm Calm - N/A   Unknown
9:54 PM 68.0 °F - 63.0 °F 84% 30.07 in - Calm Calm - N/A   Unknown
10:54 PM 66.0 °F - 63.0 °F 90% 30.08 in - Calm Calm - N/A   Unknown
11:54 PM 64.9 °F - 62.1 °F 90% 30.07 in - Calm Calm - N/A   Unknown